User: anonymous   Login
Location: ??????
(41.3747°N, 22.5491°E)
Time: 00:14:43
(UTC+00:00)
Language:

X-37B - Orbit

View from above orbital plane
View from above orbital plane
View from above satellite
View from above satellite

Ground track
Ground track

The orbit data is extracted from the following two-line orbital elements,

1 45606U 20029A   21058.17934958 0.00000000  00000-0  00000-0 0    09
2 45606  45.0410 125.4340 0006000 155.5579 204.4416 15.60032063    06
Epoch (UTC): 27 February 2021 04:18:15
Eccentricity: 0.0006000
inclination: 45.0410°
perigee height: 383 km
apogee height: 391 km
right ascension of ascending node: 125.4340°
argument of perigee: 155.5579°
revolutions per day: 15.60032063
mean anomaly at epoch: 204.4416°
orbit number at epoch: 0

The dashed part of the orbit path shows where the satellite is in the earth's shadow,  

DLR